Tracking 20945 objects as of 8-Jul-2020
HD Live streaming from Space Station
objects crossing your sky now

COSMOS 660

Track COSMOS 660 now!
10-day predictions
COSMOS 660 is classified as:


NORAD ID: 7337
Int'l Code: 1974-044A
Perigee: 380.6 km
Apogee: 1,155.9 km
Inclination: 82.9 °
Period: 100.1 minutes
Semi major axis: 7139 km
RCS: 2.9855 m2 (large)
Launch date: June 18, 1974
Source: Commonwealth of Independent States (former USSR) (CIS)
Launch site: PLESETSK MISSILE AND SPACE COMPLEX (PKMTR)
aabbcc
Your satellite tracking list
Your tracking list is empty




NASA's NSSDC Master Catalog

Two Line Element Set (TLE):
1  7337U 74044A   20189.89173424 +.00000488 +00000-0 +22366-4 0  9990
2  7337 082.9480 296.6138 0543011 048.4673 316.1794 14.39204915327195
Source of the keplerian elements: AFSPC